User: anonymous   Login
Location: Unspecified
(0.0000°N, 0.0000°E)
Time: 00:18:29
(UTC+02:00)
Language:

ASC 2 Rocket - Orbit

View from above orbital plane
View from above orbital plane
View from above satellite
View from above satellite

Ground track
Ground track

The orbit data is extracted from the following two-line orbital elements,

1 21228U 91028B   17289.20262072  .00000202  00000-0  12582-4 0  9999
2 21228  23.9999 233.0064 1143083 276.9615 226.1919 12.53331092212972
Epoch (UTC): 16 October 2017 04:51:46
Eccentricity: 0.1143083
inclination: 23.9999°
perigee height: 556 km
apogee height: 2345 km
right ascension of ascending node: 233.0064°
argument of perigee: 276.9615°
revolutions per day: 12.53331092
mean anomaly at epoch: 226.1919°
orbit number at epoch: 21297

The dashed part of the orbit path shows where the satellite is in the earth's shadow,  

DLR